Zurück zum Katalog

STARLINK-32244

AktivKommunikationVLEO
NORAD 60411·PAYLOAD·🇺🇸 United States

Gestartet Aug 10, 2024 von Cape Canaveral Space Force Station

Loading…

Nächste Überflüge (nächste 24 Stunden)

TLE

AktuellSource: CelesTrak SupGP

Epoche: Sep 14, 2026, 22:25 UTC

1 60411C 24141P   26257.93451389 -.00030742  00000+0 -98913-3 0  2575
2 60411  53.1578  82.3160 0001315  82.5128 236.3686 15.31699496    17

Verfolge STARLINK-32244 in Echtzeit mit AllMySat

Download on the App Store